Content
SEND FEEDBACK

Daily
Averages
Monthly
Summary
United States of America

PLATTEVILLE, WISCONSIN


Home > North America > United States > Wisconsin
Elevation: 1003 feet     Latitude: 42 45N     Longitude: 090 28W

WEATHER
 
SELECT A DAY
Number of Records: 217,886;   Date Range: 1/30/97 - 7/7/14
 
SHARE

PRINT THIS DATA

[ ← Previous Day ]
WEATHER ALMANAC - JANUARY 3, 2013
[ Next Day → ]
[ °C ]   °F
Weather ElementAverageHighLow
Temperature20.6 °F26.6 °F (2:55 am)10.4 °F (9:55 pm)
Dewpoint15.4 °F23 °F (2:35 am)5 °F (8:55 pm)
Humidity80.5 %93 % (2:35 am)68 % (2:35 pm)
Barometer30.14 in30.22 in (5:55 pm)30.02 in (12:35 am)
Wind Speed10.5 mph15 mph (11:15 am)
Wind Gust19.6 mph (4:35 am)
Weather ElementAverage
Visibility8 mi
Wind DirectionW (267 °)

Weather ElementTotal
Precipitation---
Heating Degree Days46.5 (Base 65)
Averaged from 69 records on January 3, 2013
WEATHER CONDITIONS BREAKOUT
WIND DIRECTION BREAKOUT
WEATHER BY HOUR - JANUARY 3, 2013
[ °C ]   °F
Local TimeTemperatureDewpointHumidityBarometerVisibilityWind DirectionWind SpeedGust SpeedPrecipitationEventsConditions
12:35 AM23.0 °F19.4 °F86 %30.02 in7.0 miWest (260°)5.8 mphOvercast
12:55 AM23.0 °F19.4 °F86 %30.03 in7.0 miWSW (250°)8.1 mphOvercast
1:15 AM24.8 °F21.2 °F86 %30.03 in5.0 miWSW (250°)8.1 mphOvercast
1:35 AM24.8 °F21.2 °F86 %30.04 in5.0 miWest (260°)8.1 mphOvercast
1:55 AM24.8 °F21.2 °F86 %30.04 in5.0 miWest (260°)8.1 mphOvercast
2:15 AM24.8 °F21.2 °F86 %30.04 in3.0 miWest (260°)8.1 mphOvercast
2:35 AM24.8 °F23.0 °F93 %30.04 in4.0 miWest (270°)8.1 mphOvercast
2:55 AM26.6 °F23.0 °F86 %30.04 in5.0 miWest (270°)9.2 mphOvercast
3:15 AM26.6 °F23.0 °F86 %30.04 in5.0 miWest (270°)8.1 mphOvercast
3:35 AM26.6 °F23.0 °F86 %30.04 in5.0 miWest (280°)9.2 mphOvercast
3:55 AM26.6 °F23.0 °F86 %30.04 in5.0 miWNW (290°)6.9 mphOvercast
4:15 AM26.6 °F23.0 °F86 %30.05 in5.0 miWest (280°)10.4 mphOvercast
4:35 AM26.6 °F23.0 °F86 %30.05 in7.0 miWNW (290°)10.4 mph19.6 mphOvercast
4:55 AM26.6 °F23.0 °F86 %30.05 in5.0 miWNW (300°)8.1 mphOvercast
5:15 AM26.6 °F23.0 °F86 %30.06 in5.0 miWNW (290°)5.8 mphOvercast
5:35 AM26.6 °F23.0 °F86 %30.06 in5.0 miWNW (290°)8.1 mphOvercast
5:55 AM26.6 °F23.0 °F86 %30.07 in5.0 miWNW (290°)5.8 mphOvercast
6:15 AM26.6 °F23.0 °F86 %30.08 in5.0 miWNW (290°)6.9 mphOvercast
6:35 AM26.6 °F23.0 °F86 %30.09 in7.0 miWNW (300°)6.9 mphOvercast
7:15 AM26.6 °F23.0 °F86 %30.10 in5.0 miWNW (300°)6.9 mphOvercast
7:35 AM26.6 °F21.2 °F80 %30.11 in5.0 miWest (270°)13.8 mph17.3 mphOvercast
7:55 AM24.8 °F21.2 °F86 %30.12 in5.0 miWest (260°)13.8 mphOvercast
8:15 AM23.0 °F21.2 °F93 %30.12 in5.0 miWest (270°)11.5 mphOvercast
8:35 AM23.0 °F19.4 °F86 %30.13 in5.0 miWest (270°)11.5 mphSnowLight Snow
8:55 AM23.0 °F17.6 °F80 %30.13 in3.0 miWSW (250°)11.5 mphSnowLight Snow
9:15 AM23.0 °F17.6 °F80 %30.14 in3.0 miWest (270°)9.2 mphSnowLight Snow
9:35 AM21.2 °F17.6 °F86 %30.15 in4.0 miWest (270°)11.5 mphSnowLight Snow
9:55 AM21.2 °F17.6 °F86 %30.16 in7.0 miWest (270°)13.8 mphSnowLight Snow
10:15 AM21.2 °F15.8 °F80 %30.17 in10.0 miWest (280°)11.5 mph18.4 mphSnowLight Snow
10:35 AM21.2 °F15.8 °F80 %30.16 in10.0 miWest (270°)10.4 mphSnowLight Snow
10:55 AM21.2 °F15.8 °F80 %30.17 in10.0 miWest (280°)12.7 mphOvercast
11:15 AM21.2 °F15.8 °F80 %30.16 in10.0 miWest (270°)15.0 mphOvercast
11:35 AM21.2 °F15.8 °F80 %30.16 in10.0 miWest (280°)13.8 mphOvercast
11:55 AM21.2 °F15.8 °F80 %30.16 in10.0 miWest (280°)11.5 mph16.1 mphOvercast
12:15 PM21.2 °F15.8 °F80 %30.16 in10.0 miWest (270°)13.8 mphOvercast
12:35 PM23.0 °F15.8 °F74 %30.15 in10.0 miWest (270°)9.2 mphOvercast
12:55 PM23.0 °F15.8 °F74 %30.15 in10.0 miWest (280°)11.5 mphOvercast
1:15 PM23.0 °F15.8 °F74 %30.15 in10.0 miWest (270°)13.8 mphOvercast
1:35 PM23.0 °F15.8 °F74 %30.16 in10.0 miWest (270°)12.7 mphOvercast
1:55 PM23.0 °F15.8 °F74 %30.16 in10.0 miWest (260°)10.4 mphOvercast
2:15 PM23.0 °F15.8 °F74 %30.16 in10.0 miWest (260°)10.4 mphScattered Clouds
2:35 PM23.0 °F14.0 °F68 %30.17 in10.0 miWest (260°)10.4 mphClear
2:55 PM23.0 °F14.0 °F68 %30.17 in10.0 miWest (260°)10.4 mphClear
3:15 PM21.2 °F14.0 °F74 %30.18 in10.0 miWest (260°)10.4 mphClear
3:35 PM21.2 °F14.0 °F74 %30.19 in10.0 miWest (260°)10.4 mphClear
3:55 PM21.2 °F14.0 °F74 %30.20 in10.0 miWest (260°)12.7 mphClear
4:15 PM19.4 °F14.0 °F80 %30.20 in10.0 miWSW (250°)11.5 mphClear
4:55 PM19.4 °F12.2 °F74 %30.21 in10.0 miWSW (250°)9.2 mphClear
5:15 PM17.6 °F12.2 °F79 %30.21 in10.0 miWest (260°)10.4 mphClear
5:35 PM17.6 °F12.2 °F79 %30.21 in10.0 miWSW (250°)8.1 mphClear
5:55 PM17.6 °F12.2 °F79 %30.22 in10.0 miWSW (250°)9.2 mphClear
6:15 PM17.6 °F12.2 °F79 %30.22 in10.0 miWest (260°)13.8 mphClear
6:35 PM17.6 °F10.4 °F73 %30.22 in10.0 miWest (260°)13.8 mphClear
6:55 PM15.8 °F10.4 °F79 %30.22 in10.0 miWest (260°)12.7 mphClear
7:15 PM15.8 °F10.4 °F79 %30.22 in10.0 miWest (260°)11.5 mphClear
7:35 PM15.8 °F10.4 °F79 %30.22 in10.0 miWest (260°)15.0 mphClear
7:55 PM14.0 °F8.6 °F79 %30.22 in10.0 miWest (260°)12.7 mphClear
8:15 PM14.0 °F8.6 °F79 %30.21 in10.0 miWest (270°)12.7 mphClear
8:35 PM12.2 °F6.8 °F79 %30.21 in10.0 miWest (270°)15.0 mphClear
8:55 PM12.2 °F5.0 °F73 %30.21 in10.0 miWest (260°)12.7 mphClear
9:15 PM12.2 °F5.0 °F73 %30.21 in10.0 miWest (260°)11.5 mphClear
9:35 PM12.2 °F5.0 °F73 %30.21 in10.0 miWest (260°)10.4 mphClear
9:55 PM10.4 °F5.0 °F79 %30.21 in10.0 miWest (260°)10.4 mphClear
10:15 PM10.4 °F5.0 °F79 %30.21 in10.0 miWest (260°)10.4 mphClear
10:35 PM10.4 °F5.0 °F79 %30.21 in10.0 miWSW (250°)10.4 mphClear
10:55 PM10.4 °F5.0 °F79 %30.20 in10.0 miWSW (250°)11.5 mphClear
11:15 PM10.4 °F5.0 °F79 %30.18 in10.0 miWSW (250°)10.4 mphClear
11:35 PM10.4 °F5.0 °F79 %30.19 in10.0 miWSW (250°)9.2 mphClear
11:55 PM10.4 °F5.0 °F79 %30.18 in10.0 miWSW (240°)6.9 mphClear
Hourly data recorded from KMRJ, located miles away from Platteville, Wisconsin







STORIES FROM OUR PARTNERS